Weather in Stepnoye Poleologovo

Russia / Penza Oblast     53°19′47″N   44°57′07″E
temp.,
°C
wind,
m/s
gust,
m/s
humid.,
%
clouds,
%
prec.,
mm/h
press.,
hPa
HPBL,
m
7 march, sun
sun700:00−9n1197100 1.0 101433
03:00−12nw239793 1.1 101481
06:00−15w229558 0.0 101422
09:00−11sw379443 0.0 1014255
12:00−8sw5109177 0.0 1012515
15:00−6sw7138788 0.0 1008894
18:00−5sw81692100 0.6 10051139
21:00−5sw91891100 1.9 10011266
8 march, mon
mon800:00−3sw81790100 0.7 9971110
03:00−2wsw81589100 1.2 9971190
06:00−6wsw6138689 0.1 1000739
09:00−7wsw5118545 0.1 1002721
12:00−4wsw59820 0.0 1002930
15:00−3sw5108650 0.1 10021147
18:00−4wsw41088100 0.7 1002866
21:00−8wsw3119190 0.8 1004393
9 march, tue
tue900:00−12w310931 0.0 1006206
03:00−15w25961 0.0 1008100
06:00−17w129719 0.0 101020
09:00−13wnw259445 0.0 1011234
12:00−10nw249392 0.0 1012326
15:00−9wnw359096 0.1 1013543
18:00−11nw2695100 0.1 1013225
21:00−13nw2596100 0.1 1015146
10 march, wed
wed1000:00−14nnw379594 0.1 1016243
03:00−19nw239873 0.1 101873
06:00−21nw389873 0.0 1019195
09:00−19nnw379586 0.1 1021331
12:00−16nnw4689100 0.0 1022615
15:00−16nw4688100 0.1 1023742
18:00−20nw3994100 0.0 1024276
21:00−24nw259685 0.0 102790
11 march, thu
thu1100:00−26nw23960 0.0 102843
03:00−26wnw22960 0.0 102925
06:00−26w22960 0.0 102932
09:00−21wnw36900 0.0 1030257
12:00−16wnw37860 0.0 1029350
15:00−13wnw37860 0.0 1029405
18:00−17w23930 0.0 103060
21:00−20wsw23900 0.0 103130